Overview Statistics Trail Chart Weather Telemetry Raw packets
 

This is the latest recevied weather packets stored in our database for station/object SV9TNF-57. If no packets are shown the sender has not sent any weather packets the latest 10 day(s).

<< 107 108 109 110 111 112 113 >>
Time Temp. Humidity Pressure Rain* Wind** Luminosity Snow
1787852200 29.44° C 44% 995.6 hPa 0 mm 8.49 m/s, 335° - -
1787851899 29.44° C 44% 995.6 hPa 0 mm 8.49 m/s, 345° - -
1787851599 29.44° C 44% 995.7 hPa 0 mm 8.49 m/s, 342° - -
1787851299 29.44° C 44% 995.4 hPa 0 mm 8.05 m/s, 329° - -
1787850999 29.44° C 43% 995.5 hPa 0 mm 5.81 m/s, 306° - -
1787850699 29.44° C 44% 995.3 hPa 0 mm 6.26 m/s, 0° - -
1787850399 30° C 44% 995.2 hPa 0 mm 3.13 m/s, 270° - -
1787850099 29.44° C 44% 995.2 hPa 0 mm 8.94 m/s, 281° - -
1787849799 30° C 44% 995.3 hPa 0 mm 4.47 m/s, 266° - -
1787849498 30° C 43% 995.2 hPa 0 mm 2.68 m/s, 324° - -
1787849203 30° C 42% 995.2 hPa 0 mm 4.47 m/s, 293° - -
1787848898 30° C 42% 995.2 hPa 0 mm 9.39 m/s, 9° - -
1787848598 30° C 42% 994.9 hPa 0 mm 8.05 m/s, 268° - -
1787848298 30.56° C 42% 995.2 hPa 0 mm 8.49 m/s, 303° - -
1787847998 30.56° C 42% 995 hPa 0 mm 7.15 m/s, 277° - -
1787847698 30.56° C 41% 995.1 hPa 0 mm 8.94 m/s, 56° - -
1787847398 30.56° C 41% 995.1 hPa 0 mm 7.15 m/s, 315° - -
1787847097 31.11° C 41% 995.4 hPa 0 mm 8.49 m/s, 353° - -
1787846797 31.11° C 41% 995.1 hPa 0 mm 6.71 m/s, 315° - -
1787846497 31.11° C 40% 995 hPa 0 mm 4.92 m/s, 313° - -
1787846197 31.11° C 40% 994.9 hPa 0 mm 9.39 m/s, 334° - -
1787845897 31.67° C 39% 995.2 hPa 0 mm 5.36 m/s, 325° - -
1787845597 31.67° C 39% 995.1 hPa 0 mm 8.49 m/s, 15° - -
1787845297 31.67° C 39% 995.2 hPa 0 mm 10.28 m/s, 325° - -
1787844997 31.67° C 38% 995.1 hPa 0 mm 10.73 m/s, 322° - -

* Rain latest hour (hover to see other rain measurements)
** Current wind speed in m/s (hover to see current wind gust speed)